Alexandria, LA

11:15 AM CDT on October 20, 2017 (GMT -0500)
Alexandria International

Weather History for KAEX - February, 2012

Change the Weather History Date:

Thursday, February 2, 2012

  Actual Average Record
Temperature  
Mean Temperature 67 °F 50 °F  
Max Temperature 71 °F 60 °F 82 °F (1989)
Min Temperature 62 °F 39 °F 7 °F (1951)
Degree Days  
Heating Degree Days 0 16  
Month to date heating degree days 0 32  
Since 1 July heating degree days 1142 1323  
Cooling Degree Days 1    
Growing Degree Days 16 (Base 50)    
Moisture  
Dew Point 62 °F    
Average Humidity 87    
Maximum Humidity 100    
Minimum Humidity 73    
Precipitation  
Precipitation 0.25 in 0.16 in 5.20 in (1896)
Month to date precipitation 0.38 0.32  
Year to date precipitation 5.74 5.54  
Snow  
Snow 0.00 in - 0.00 in ()
Month to date snowfall 0.0  
Since 1 July snowfall 0.0  
Snow Depth 0.00 in    
Sea Level Pressure  
Sea Level Pressure 30.11 in    
Wind  
Wind Speed 6 mph (ESE)    
Max Wind Speed 14 mph    
Max Gust Speed 17 mph    
Visibility 6 miles    
Events Rain    
T = Trace of Precipitation, MM = Missing Value Source: NWS Daily Summary

Daily Weather History Graph

Daily Weather History Graph

Search for Another Location

Airport or City:

Trip Planner

Search our weather history database for the weather conditions in past years. The results will help you decide how hot, cold, wet, or windy it might be!

Date:

Astronomy

Feb. 02, 2012 Rise Set
Actual Time 7:02 AM CST 5:45 PM CST
Civil Twilight 6:36 AM CST 6:11 PM CST
Nautical Twilight 6:07 AM CST 6:40 PM CST
Astronomical Twilight 5:39 AM CST 7:08 PM CST
Moon 1:05 PM CST (2/2) 2:37 AM CST (2/2)
Length of Visible Light 11h 34m
Length of Day
10h 43m
Waxing Gibbous, 74% of the Moon is Illuminated
Feb 2
Waxing Gibbous
Feb 7
Full
Feb 14
Last Quarter
Feb 21
New
Feb 29
First Quarter

Hourly Weather History & Observations

Time (CST) Temp. Dew Point Humidity Pressure Visibility Wind Dir Wind Speed Gust Speed Precip Events Conditions
12:12 AM 64.4 °F 62.6 °F 94% 30.10 in 2.5 mi SSE 4.6 mph - N/A   Overcast
12:53 AM 66.0 °F 63.0 °F 90% 30.11 in 2.0 mi SSE 3.5 mph - N/A   Overcast
1:00 AM 62.6 °F 62.6 °F 100% 30.11 in 1.5 mi SE 3.5 mph - N/A   Overcast
1:17 AM 62.6 °F 62.6 °F 100% 30.11 in 2.5 mi Calm Calm - N/A   Overcast
1:23 AM 62.6 °F 62.6 °F 100% 30.11 in 1.8 mi ESE 4.6 mph - N/A   Overcast
1:31 AM 62.6 °F 62.6 °F 100% 30.11 in 3.0 mi ESE 4.6 mph - N/A   Overcast
1:53 AM 63.0 °F 62.1 °F 97% 30.12 in 7.0 mi Calm Calm - N/A   Overcast
2:26 AM 62.6 °F 62.6 °F 100% 30.10 in 6.0 mi Calm Calm - N/A   Overcast
2:53 AM 63.0 °F 62.1 °F 97% 30.11 in 7.0 mi ENE 4.6 mph - N/A   Overcast
3:53 AM 64.0 °F 62.1 °F 93% 30.11 in 8.0 mi Calm Calm - N/A   Overcast
4:53 AM 63.0 °F 62.1 °F 97% 30.12 in 7.0 mi Calm Calm - N/A   Overcast
5:53 AM 63.0 °F 62.1 °F 97% 30.14 in 4.0 mi ESE 3.5 mph - N/A   Overcast
6:19 AM 62.6 °F 62.6 °F 100% 30.13 in 2.5 mi SE 4.6 mph - N/A   Overcast
6:38 AM 62.6 °F 62.6 °F 100% 30.13 in 4.0 mi ESE 4.6 mph - N/A   Overcast
6:53 AM 63.0 °F 62.1 °F 97% 30.15 in 3.0 mi SE 4.6 mph - N/A   Overcast
7:20 AM 62.6 °F 62.6 °F 100% 30.14 in 2.0 mi ESE 4.6 mph - N/A   Overcast
7:28 AM 62.6 °F 62.6 °F 100% 30.14 in 2.0 mi ESE 5.8 mph - N/A   Overcast
7:36 AM 62.6 °F 62.6 °F 100% 30.14 in 3.0 mi East 4.6 mph - N/A   Overcast
7:43 AM 62.6 °F 62.6 °F 100% 30.14 in 4.0 mi East 4.6 mph - N/A   Overcast
7:53 AM 62.1 °F 61.0 °F 96% 30.15 in 5.0 mi East 6.9 mph - N/A   Overcast
8:13 AM 62.6 °F 62.6 °F 100% 30.14 in 5.0 mi ESE 5.8 mph - N/A   Overcast
8:53 AM 63.0 °F 62.1 °F 97% 30.16 in 8.0 mi East 4.6 mph - N/A   Overcast
9:01 AM 62.6 °F 60.8 °F 94% 30.15 in 7.0 mi East 4.6 mph - N/A   Overcast
9:53 AM 64.9 °F 62.1 °F 90% 30.17 in 10.0 mi Calm Calm - N/A   Overcast
10:53 AM 66.0 °F 62.1 °F 87% 30.17 in 10.0 mi ESE 4.6 mph - N/A   Overcast
11:53 AM 66.0 °F 63.0 °F 90% 30.16 in 7.0 mi ESE 5.8 mph - N/A   Overcast
12:14 PM 66.2 °F 62.6 °F 88% 30.13 in 8.0 mi ESE 6.9 mph - N/A   Overcast
12:16 PM 66.2 °F 62.6 °F 88% 30.13 in 8.0 mi ESE 6.9 mph - N/A   Overcast
12:53 PM 66.9 °F 63.0 °F 87% 30.13 in 5.0 mi SE 9.2 mph - N/A   Overcast
1:31 PM 66.2 °F 62.6 °F 88% 30.09 in 9.0 mi East 8.1 mph - N/A   Overcast
1:53 PM 69.1 °F 63.0 °F 81% 30.09 in 10.0 mi East 5.8 mph - N/A   Overcast
2:11 PM 69.8 °F 62.6 °F 78% 30.08 in 10.0 mi Variable 5.8 mph - N/A   Scattered Clouds
2:45 PM 69.8 °F 62.6 °F 78% 30.07 in 10.0 mi East 6.9 mph - N/A   Mostly Cloudy
2:53 PM 70.0 °F 61.0 °F 73% 30.08 in 10.0 mi ESE 8.1 mph - N/A   Overcast
3:53 PM 70.0 °F 62.1 °F 76% 30.08 in 7.0 mi East 10.4 mph - N/A   Mostly Cloudy
4:53 PM 66.9 °F 62.1 °F 84% 30.09 in 4.0 mi SE 11.5 mph - N/A   Haze
5:00 PM 66.2 °F 62.6 °F 88% 30.07 in 4.0 mi ESE 10.4 mph - N/A   Haze
5:53 PM 66.0 °F 61.0 °F 84% 30.09 in 6.0 mi SE 6.9 mph - N/A   Haze
6:53 PM 66.0 °F 61.0 °F 84% 30.11 in 6.0 mi East 4.6 mph - N/A   Haze
7:53 PM 64.9 °F 61.0 °F 87% 30.11 in 7.0 mi Calm Calm - N/A   Overcast
8:53 PM 64.9 °F 61.0 °F 87% 30.11 in 8.0 mi ENE 3.5 mph - N/A   Overcast
9:13 PM 66.2 °F 60.8 °F 83% 30.10 in 9.0 mi East 6.9 mph - 0.00 in   Overcast
9:53 PM 64.9 °F 62.1 °F 90% 30.10 in 8.0 mi East 11.5 mph - 0.03 in Rain Light Rain
10:02 PM 64.4 °F 62.6 °F 94% 30.09 in 9.0 mi East 10.4 mph - 0.00 in   Overcast
10:22 PM 64.4 °F 62.6 °F 94% 30.09 in 9.0 mi East 8.1 mph - 0.00 in   Overcast
10:53 PM 64.9 °F 63.0 °F 93% 30.09 in 4.0 mi East 9.2 mph - 0.02 in Rain Rain
11:29 PM 64.4 °F 62.6 °F 94% 30.08 in 4.0 mi ESE 11.5 mph - 0.09 in Rain Heavy Rain
11:53 PM 64.9 °F 63.0 °F 93% 30.09 in 2.5 mi SE 12.7 mph - 0.18 in Rain Heavy Rain